Change the Weather History Date:

Wednesday, October 3, 2012

  Actual Average (KISN) Record (KISN)
Temperature  
Mean Temperature 38 °F 49 °F  
Max Temperature 42 °F 63 °F 89 °F (1963)
Min Temperature 35 °F 35 °F 13 °F (1999)
Degree Days  
Heating Degree Days 26 16  
Month to date heating degree days 47  
Since 1 July heating degree days 393  
Cooling Degree Days 0 0  
Month to date cooling degree days 0  
Year to date cooling degree days 455  
Moisture  
Dew Point 34 °F    
Average Humidity 83    
Maximum Humidity 100    
Minimum Humidity 66    
Precipitation  
Precipitation 0.22 in 0.04 in 0.91 in (1915)
Month to date precipitation 0.11  
Year to date precipitation 12.29  
Sea Level Pressure  
Sea Level Pressure 30.15 in    
Wind  
Wind Speed 12 mph (North)    
Max Wind Speed 20 mph    
Max Gust Speed 28 mph    
Visibility 8 miles    
Events Rain    
T = Trace of Precipitation, MM = Missing Value Source: NWS Daily Summary

Daily Weather History Graph

Daily Weather History Graph

Search for Another Location

Airport or City:

Trip Planner

Search our weather history database for the weather conditions in past years. The results will help you decide how hot, cold, wet, or windy it might be!

Date:

Astronomy

Oct. 03, 2012 Rise Set
Actual Time 7:56 AM CDT 7:26 PM CDT
Civil Twilight 7:24 AM CDT 7:58 PM CDT
Nautical Twilight 6:48 AM CDT 8:34 PM CDT
Astronomical Twilight 6:11 AM CDT 9:11 PM CDT
Moon 8:58 PM CDT (10/3) 11:42 AM CDT (10/3)
Length of Visible Light 12h 33m
Length of Day
11h 30m
Waning Gibbous, 88% of the Moon is Illuminated
Oct 3
Waning Gibbous
Oct 8
Last Quarter
Oct 15
New
Oct 21
First Quarter
Oct 29
Full

Hourly Weather History & Observations

Time (CDT) Temp. Windchill Dew Point Humidity Pressure Visibility Wind Dir Wind Speed Gust Speed Precip Events Conditions
12:15 AM 42.8 °F 37.0 °F 32.0 °F 66% 29.93 in 10.0 mi WNW 10.4 mph - N/A   Clear
12:35 AM 42.8 °F 37.0 °F 32.0 °F 66% 29.91 in 10.0 mi NW 10.4 mph - N/A   Clear
12:55 AM 41.0 °F 34.3 °F 32.0 °F 70% 29.92 in 10.0 mi NW 11.5 mph - N/A   Clear
1:15 AM 41.0 °F 37.1 °F 32.0 °F 70% 29.95 in 10.0 mi West 5.8 mph - N/A   Clear
1:35 AM 39.2 °F 33.6 °F 32.0 °F 75% 29.95 in 10.0 mi NW 8.1 mph - N/A   Clear
1:55 AM 37.4 °F 33.8 °F 32.0 °F 81% 29.92 in 10.0 mi NNW 4.6 mph - N/A   Clear
2:15 AM 35.6 °F 29.9 °F 32.0 °F 87% 29.94 in 10.0 mi NW 6.9 mph - N/A   Clear
2:35 AM 35.6 °F 29.9 °F 32.0 °F 87% 29.93 in 10.0 mi NNW 6.9 mph - N/A   Clear
2:55 AM 35.6 °F 28.6 °F 32.0 °F 87% 29.95 in 10.0 mi NW 9.2 mph - N/A   Clear
3:15 AM 37.4 °F 31.4 °F 32.0 °F 81% 29.96 in 10.0 mi NW 8.1 mph - N/A   Clear
3:35 AM 39.2 °F 33.6 °F 33.8 °F 81% 29.97 in 10.0 mi NW 8.1 mph - N/A   Partly Cloudy
4:15 AM 39.2 °F 32.0 °F 33.8 °F 81% 29.96 in 10.0 mi NNW 11.5 mph - N/A   Clear
4:35 AM 39.2 °F 33.0 °F 33.8 °F 81% 29.97 in 10.0 mi NNW 9.2 mph - N/A   Clear
4:55 AM 37.4 °F 30.8 °F 33.8 °F 87% 29.98 in 10.0 mi NNW 9.2 mph - N/A   Clear
5:15 AM 39.2 °F 33.0 °F 35.6 °F 87% 30.02 in 10.0 mi NW 9.2 mph - N/A   Mostly Cloudy
5:55 AM 39.2 °F 32.0 °F 35.6 °F 87% 30.01 in 10.0 mi North 11.5 mph - N/A   Overcast
6:15 AM 41.0 °F 34.7 °F 35.6 °F 81% 30.02 in 10.0 mi NNW 10.4 mph - N/A   Overcast
6:35 AM 41.0 °F 35.8 °F 35.6 °F 81% 30.03 in 10.0 mi North 8.1 mph - N/A   Overcast
6:55 AM 41.0 °F 34.7 °F 35.6 °F 81% 30.02 in 10.0 mi North 10.4 mph - N/A   Overcast
7:15 AM 41.0 °F 35.2 °F 35.6 °F 81% 30.02 in 10.0 mi North 9.2 mph - N/A   Overcast
7:35 AM 41.0 °F 33.5 °F 35.6 °F 81% 30.02 in 9.0 mi North 13.8 mph - N/A   Overcast
7:55 AM 41.0 °F 34.3 °F 35.6 °F 81% 30.04 in 10.0 mi North 11.5 mph - N/A   Overcast
8:15 AM 41.0 °F 33.5 °F 35.6 °F 81% 30.03 in 10.0 mi North 13.8 mph 20.7 mph N/A   Overcast
8:35 AM 41.0 °F 33.5 °F 35.6 °F 81% 30.06 in 10.0 mi North 13.8 mph - N/A   Overcast
8:55 AM 41.0 °F 32.8 °F 35.6 °F 81% 30.04 in 10.0 mi NNE 16.1 mph - N/A   Overcast
9:15 AM 41.0 °F 32.8 °F 35.6 °F 81% 30.04 in 10.0 mi NNE 16.1 mph 19.6 mph N/A   Overcast
9:35 AM 41.0 °F 32.2 °F 35.6 °F 81% 30.04 in 10.0 mi North 18.4 mph 23.0 mph N/A   Overcast
9:55 AM 41.0 °F 32.2 °F 37.4 °F 87% 30.05 in 5.0 mi NNE 18.4 mph 24.2 mph N/A   Overcast
10:15 AM 39.2 °F 30.5 °F 37.4 °F 93% 30.07 in 2.0 mi NNE 16.1 mph - N/A Rain Light Rain
10:35 AM 39.2 °F 30.5 °F 39.2 °F 100% 30.09 in 3.0 mi NNE 16.1 mph - N/A Rain Light Rain
10:55 AM 41.0 °F 33.1 °F 37.4 °F 87% 30.09 in 10.0 mi North 15.0 mph 23.0 mph N/A   Overcast
11:15 AM 41.0 °F 33.5 °F 35.6 °F 81% 30.11 in 10.0 mi North 13.8 mph 20.7 mph N/A   Overcast
11:35 AM 41.0 °F 32.2 °F 33.8 °F 76% 30.12 in 10.0 mi North 18.4 mph 24.2 mph N/A   Overcast
11:55 AM 41.0 °F 32.5 °F 32.0 °F 70% 30.14 in 10.0 mi North 17.3 mph 26.5 mph N/A   Overcast
12:15 PM 41.0 °F 32.5 °F 33.8 °F 76% 30.14 in 10.0 mi North 17.3 mph 23.0 mph N/A   Overcast
12:55 PM 39.2 °F 30.2 °F 35.6 °F 87% 30.14 in 7.0 mi North 17.3 mph - 0.01 in   Overcast
1:15 PM 39.2 °F 30.2 °F 35.6 °F 87% 30.15 in 9.0 mi NNE 17.3 mph 21.9 mph N/A Rain Light Rain
1:35 PM 41.0 °F 32.8 °F 35.6 °F 81% 30.16 in 10.0 mi NNE 16.1 mph 23.0 mph N/A Rain Light Rain
1:55 PM 41.0 °F 33.1 °F 33.8 °F 76% 30.18 in 10.0 mi NNE 15.0 mph - N/A Rain Light Rain
2:15 PM 39.2 °F 30.2 °F 35.6 °F 87% 30.19 in 7.0 mi NNE 17.3 mph 20.7 mph 0.01 in Rain Light Rain
2:35 PM 39.2 °F 31.6 °F 35.6 °F 87% 30.19 in 6.0 mi NNE 12.7 mph 21.9 mph 0.03 in Rain Light Rain
2:55 PM 39.2 °F 30.8 °F 35.6 °F 87% 30.20 in 4.0 mi NNE 15.0 mph 25.3 mph 0.06 in   Overcast
3:15 PM 39.2 °F 30.8 °F 35.6 °F 87% 30.21 in 5.0 mi NNE 15.0 mph 23.0 mph N/A Rain Light Rain
3:35 PM 39.2 °F 30.2 °F 35.6 °F 87% 30.22 in 5.0 mi North 17.3 mph 23.0 mph 0.02 in Rain Light Rain
3:55 PM 39.2 °F 29.8 °F 35.6 °F 87% 30.22 in 3.0 mi NNE 18.4 mph 24.2 mph 0.05 in   Overcast
4:15 PM 39.2 °F 30.5 °F 35.6 °F 87% 30.23 in 3.0 mi NNE 16.1 mph 24.2 mph 0.01 in   Overcast
4:35 PM 39.2 °F 30.5 °F 35.6 °F 87% 30.24 in 4.0 mi North 16.1 mph 20.7 mph 0.03 in   Overcast
4:55 PM 39.2 °F 30.8 °F 35.6 °F 87% 30.25 in 5.0 mi NNE 15.0 mph 21.9 mph 0.04 in Rain Light Rain
5:15 PM 39.2 °F 31.6 °F 35.6 °F 87% 30.26 in 4.0 mi NNE 12.7 mph 23.0 mph N/A   Overcast
5:35 PM 39.2 °F 31.2 °F 35.6 °F 87% 30.27 in 5.0 mi North 13.8 mph 19.6 mph 0.01 in Rain Light Rain
5:55 PM 39.2 °F 31.6 °F 35.6 °F 87% 30.28 in 4.0 mi NNE 12.7 mph - 0.02 in   Overcast
6:15 PM 37.4 °F 27.2 °F 35.6 °F 93% 30.29 in 5.0 mi North 19.6 mph 23.0 mph N/A   Overcast
6:35 PM 37.4 °F 28.5 °F 35.6 °F 93% 30.30 in 5.0 mi North 15.0 mph 21.9 mph 0.01 in   Overcast
6:55 PM 37.4 °F 28.5 °F 35.6 °F 93% 30.31 in 5.0 mi North 15.0 mph 20.7 mph 0.02 in Rain Light Rain
7:15 PM 37.4 °F 30.3 °F 35.6 °F 93% 30.31 in 7.0 mi North 10.4 mph 21.9 mph N/A   Overcast
7:35 PM 37.4 °F 29.3 °F 35.6 °F 93% 30.32 in 5.0 mi North 12.7 mph 18.4 mph 0.01 in Rain Light Rain
7:55 PM 37.4 °F 27.8 °F 33.8 °F 87% 30.33 in 8.0 mi NNE 17.3 mph 21.9 mph 0.02 in Rain Light Rain
8:15 PM 37.4 °F 28.2 °F 33.8 °F 87% 30.34 in 10.0 mi North 16.1 mph 20.7 mph N/A Rain Light Rain
8:35 PM 37.4 °F 28.2 °F 33.8 °F 87% 30.34 in 8.0 mi North 16.1 mph 20.7 mph N/A Rain Light Rain
8:55 PM 37.4 °F 27.5 °F 32.0 °F 81% 30.35 in 9.0 mi North 18.4 mph 21.9 mph N/A Rain Light Rain
9:15 PM 37.4 °F 27.2 °F 32.0 °F 81% 30.36 in 10.0 mi NNE 19.6 mph 27.6 mph N/A Rain Light Rain
9:35 PM 37.4 °F 28.5 °F 32.0 °F 81% 30.36 in 10.0 mi NNE 15.0 mph - N/A   Overcast
9:55 PM 37.4 °F 28.5 °F 32.0 °F 81% 30.36 in 10.0 mi NNE 15.0 mph 19.6 mph N/A   Mostly Cloudy
10:15 PM 37.4 °F 30.8 °F 32.0 °F 81% 30.37 in 10.0 mi North 9.2 mph - N/A   Overcast
10:35 PM 37.4 °F 30.8 °F 32.0 °F 81% 30.37 in 10.0 mi North 9.2 mph - N/A   Mostly Cloudy
10:55 PM 37.4 °F 30.3 °F 32.0 °F 81% 30.38 in 10.0 mi North 10.4 mph 16.1 mph N/A   Partly Cloudy
11:15 PM 37.4 °F 30.3 °F 32.0 °F 81% 30.38 in 10.0 mi North 10.4 mph 18.4 mph N/A   Clear
11:35 PM 35.6 °F 27.5 °F 32.0 °F 87% 30.38 in 10.0 mi North 11.5 mph - N/A   Clear
11:55 PM 35.6 °F 28.0 °F 32.0 °F 87% 30.39 in 10.0 mi North 10.4 mph - N/A   Clear